Location: Slemon Park
(46.4340°N, 63.8219°W)
Time: 07:41:37
(UTC-04:00)

ISS - All Passes

Search period start: 01 February 2015 00:00
Search period end: 11 February 2015 00:00
Orbit: 400 x 408 km, 51.6° (Epoch: 01 February)

Date Brightness Start Highest point End Pass type
(mag) Time Alt. Az. Time Alt. Az. Time Alt. Az.
01 Feb - 00:39:12 10° WNW 00:42:13 32° N 00:45:14 10° ENE night (unlit)
01 Feb - 02:15:45 10° WNW 02:19:03 68° NNE 02:22:21 10° ESE night (unlit)
01 Feb - 03:52:38 10° W 03:55:18 22° SW 03:57:56 10° SSE night (unlit)
01 Feb - 20:33:48 10° SSW 20:36:34 26° SE 20:39:22 10° E night (unlit)
01 Feb - 22:09:37 10° WSW 22:12:52 61° NNW 22:16:08 10° ENE night (unlit)
01 Feb - 23:46:44 10° WNW 23:49:44 31° N 23:52:45 10° ENE night (unlit)
02 Feb - 01:23:27 10° WNW 01:26:40 48° NNE 01:29:53 10° E night (unlit)
02 Feb - 03:00:01 10° WNW 03:03:07 38° SW 03:06:12 10° SSE night (unlit)
02 Feb - 19:42:28 10° S 19:44:24 15° SE 19:46:25 10° E visible
02 Feb - 21:17:13 10° WSW 21:20:29 88° SSE 21:23:48 10° ENE night (unlit)
02 Feb - 22:54:11 10° WNW 22:57:13 34° N 23:00:17 10° ENE night (unlit)
03 Feb - 00:31:05 10° WNW 00:34:12 37° NNE 00:37:20 10° E night (unlit)
03 Feb - 02:07:34 10° WNW 02:10:50 65° SSW 02:14:06 10° SE night (unlit)
03 Feb - 03:45:58 10° WSW 03:46:49 11° SW 03:47:32 10° SW night (unlit)
03 Feb - 20:24:58 10° SW 20:28:09 53° SSE 20:31:23 10° ENE visible
03 Feb - 22:01:35 10° W 22:04:43 40° NNW 22:07:52 10° ENE night (unlit)
03 Feb - 23:38:39 10° WNW 23:41:41 32° N 23:44:43 10° ENE night (unlit)
04 Feb - 01:15:10 10° WNW 01:18:28 79° NNE 01:21:46 10° ESE night (unlit)
04 Feb - 02:52:14 10° W 02:54:38 19° SW 02:57:00 10° S night (unlit)
04 Feb - 19:32:57 10° SSW 19:35:51 30° SE 19:38:49 10° ENE visible
04 Feb - 21:09:00 10° W 21:12:13 54° NNW 21:15:28 10° ENE night (unlit)
04 Feb - 22:46:08 10° WNW 22:49:07 31° N 22:52:07 10° ENE night (unlit)
05 Feb - 00:22:47 10° WNW 00:26:01 53° NNE 00:29:16 10° E night (unlit)
05 Feb - 01:59:25 10° WNW 02:02:24 31° SW 02:05:21 10° SSE night (unlit)
05 Feb - 18:41:19 10° S 18:43:36 18° SE 18:45:57 10° E visible
05 Feb - 20:16:29 10° WSW 20:19:45 80° NNW 20:23:03 10° ENE visible
05 Feb - 21:53:31 10° WNW 21:56:32 33° N 21:59:34 10° ENE night (unlit)
05 Feb - 23:30:21 10° WNW 23:33:29 40° NNE 23:36:37 10° E night (unlit)
06 Feb - 01:06:50 10° WNW 01:10:04 54° SSW 01:13:17 10° SE night (unlit)
06 Feb - 17:50:59 10° SE 17:51:22 10° SE 17:51:52 10° SE daylight
06 Feb - 19:24:05 10° SW 19:27:18 63° SSE 19:30:34 10° ENE visible
06 Feb - 21:00:50 10° W 21:03:56 37° NNW 21:07:02 10° ENE visible
06 Feb - 22:37:51 10° WNW 22:40:54 34° N 22:43:57 10° ENE night (unlit)
07 Feb - 00:14:20 10° WNW 00:17:38 89° SSW 00:20:56 10° ESE night (unlit)
07 Feb - 01:51:39 10° W 01:53:44 16° SW 01:55:44 10° S night (unlit)
07 Feb - 18:31:53 10° SSW 18:34:54 36° SE 18:37:59 10° ENE visible
07 Feb - 20:08:08 10° W 20:11:20 48° NNW 20:14:32 10° ENE visible
07 Feb - 21:45:16 10° WNW 21:48:15 31° N 21:51:15 10° ENE night (unlit)
07 Feb - 23:21:51 10° WNW 23:25:07 60° NNE 23:28:22 10° ESE night (unlit)
08 Feb - 00:58:35 10° W 01:01:25 26° SW 01:04:13 10° SSE night (unlit)
08 Feb - 17:40:01 10° S 17:42:33 21° SE 17:45:08 10° E daylight
08 Feb - 19:15:30 10° WSW 19:18:45 70° NNW 19:22:03 10° ENE visible
08 Feb - 20:52:35 10° WNW 20:55:35 32° N 20:58:35 10° ENE visible
08 Feb - 22:29:21 10° WNW 22:32:31 43° NNE 22:35:41 10° E night (unlit)
09 Feb - 00:05:51 10° WNW 00:09:01 45° SW 00:12:10 10° SE night (unlit)
09 Feb - 16:48:49 10° SSE 16:50:13 12° SE 16:51:43 10° ESE daylight
09 Feb - 18:22:58 10° SW 18:26:13 75° SSE 18:29:30 10° ENE visible
09 Feb - 19:59:50 10° W 20:02:53 35° N 20:05:58 10° ENE visible
09 Feb - 21:36:47 10° WNW 21:39:51 35° N 21:42:56 10° ENE night (unlit)
09 Feb - 23:13:14 10° WNW 23:16:32 77° SSW 23:19:49 10° ESE night (unlit)
10 Feb - 00:50:56 10° WSW 00:52:33 13° SW 00:54:05 10° SSW night (unlit)
10 Feb - 17:30:36 10° SW 17:33:43 43° SE 17:36:51 10° ENE daylight
10 Feb - 19:07:03 10° W 19:10:12 44° NNW 19:13:22 10° ENE visible
10 Feb - 20:44:08 10° WNW 20:47:08 32° N 20:50:08 10° ENE visible
10 Feb - 22:20:40 10° WNW 22:23:57 68° NNE 22:27:13 10° ESE night (unlit)
